ARIRANG-3 (KOMPSAT-3)

Last updated on Sat Nov 01 2025 00:02:29 GMT+0000 (Coordinated Universal Time)

1 38338U 12025B 25304.71150044 .00000853 00000+0 18114-3 0 9994 2 38338 98.3249 259.0023 0007183 95.3076 264.8944 14.61626763717961
UTC large
Height (km)
Speed (km/s)
/
Latitude / Longitude
Inclination (degrees)
Orbital Period (minutes)
Azimuth
Elevation
Range (km)
Doppler Factor

Next 0 passes for location: London (51.5072 / 0.1276)

Sorry there are no passes over London.